SIA323 EHAM-WSSS

Flight info

Callsign SIA323
Flight time N/A
Altitude 35000
Route EDUPO Z739 MISGO DCT DOJOH DCT DODEN DCT NEGIX DCT DINKU DCT BESNI DCT ALUTU DCT ESEGA DCT VELOM DCT STEIN DCT TEGRI DCT LUGEB/N0485F370 DCT UDROS DCT CRM UM11 TBN UP146 YAVUZ UB374 INDUR N449 SULEL M747 BODKA P130 MAMED B449 DOLOS B475 RUBAD/N0484F390 B475 NINOP A909 LEMOD N644 DI A466 SULOM M890 LKN R460 BBN P646 IBITA/N0485F410 P646 POXEM M626 IKOGA Y24 PASVA Y514 NUFFA DCT PIBAP DCT PASPU DCT NYLON DCT POSUB DCT SANAT
Aircraft A359/H-SDE1E2E3GHIJ1J2J3J5M1P2RWXYZ/LB1D1

Departure

Time 2026-05-06 04:29
Airport Amsterdam Airport Schiphol (EHAM)

Arrival

Time N/A
Airport Singapore Changi Airport (WSSS)
Time Latitude Longitude Altitude Speed Heading
2026-05-06 04:05 52.31220 4.75592 5 ft 0 kts 86°
2026-05-06 04:10 52.31219 4.75589 5 ft 4 kts 87°
2026-05-06 04:11 52.31219 4.75545 5 ft 4 kts 89°
2026-05-06 04:11 52.31217 4.75501 6 ft 4 kts 80°
2026-05-06 04:11 52.31209 4.75466 7 ft 4 kts 26°
2026-05-06 04:11 52.31207 4.75462 7 ft 4 kts 356°
2026-05-06 04:12 52.31233 4.75459 6 ft 4 kts 356°
2026-05-06 04:12 52.31260 4.75456 5 ft 4 kts 356°
2026-05-06 04:12 52.31287 4.75454 5 ft 3 kts 356°
2026-05-06 04:12 52.31306 4.75453 5 ft 5 kts 356°
2026-05-06 04:13 52.31340 4.75450 5 ft 5 kts 356°
2026-05-06 04:13 52.31376 4.75447 5 ft 5 kts 356°
2026-05-06 04:13 52.31411 4.75444 5 ft 5 kts 356°
2026-05-06 04:13 52.31443 4.75442 5 ft 5 kts 356°
2026-05-06 04:14 52.31469 4.75442 5 ft 0 kts 356°
2026-05-06 04:14 52.31475 4.75438 5 ft 1 kts 356°
2026-05-06 04:14 52.31477 4.75440 5 ft 0 kts 356°
2026-05-06 04:14 52.31469 4.75440 5 ft 2 kts 356°
2026-05-06 04:15 52.31465 4.75441 5 ft 2 kts 356°
2026-05-06 04:15 52.31462 4.75441 5 ft 0 kts 356°
2026-05-06 04:15 52.31481 4.75427 5 ft 7 kts 326°
2026-05-06 04:15 52.31501 4.75365 5 ft 6 kts 282°
2026-05-06 04:16 52.31503 4.75348 4 ft 0 kts 279°
2026-05-06 04:16 52.31505 4.75322 5 ft 0 kts 278°
2026-05-06 04:16 52.31505 4.75280 5 ft 0 kts 271°
2026-05-06 04:17 52.31504 4.75200 5 ft 11 kts 268°
2026-05-06 04:17 52.31497 4.75075 5 ft 11 kts 264°
2026-05-06 04:17 52.31491 4.74943 5 ft 12 kts 270°
2026-05-06 04:17 52.31490 4.74808 5 ft 12 kts 267°
2026-05-06 04:18 52.31486 4.74668 5 ft 13 kts 267°
2026-05-06 04:18 52.31481 4.74521 5 ft 13 kts 267°
2026-05-06 04:18 52.31477 4.74382 5 ft 7 kts 267°
2026-05-06 04:18 52.31477 4.74376 5 ft 0 kts 267°
2026-05-06 04:19 52.31475 4.74290 5 ft 11 kts 271°
2026-05-06 04:19 52.31503 4.74182 5 ft 11 kts 319°
2026-05-06 04:19 52.31573 4.74159 5 ft 11 kts 360°
2026-05-06 04:19 52.31648 4.74165 5 ft 11 kts
2026-05-06 04:20 52.31726 4.74174 5 ft 12 kts
2026-05-06 04:20 52.31809 4.74182 5 ft 12 kts
2026-05-06 04:20 52.31888 4.74189 5 ft 10 kts
2026-05-06 04:20 52.31961 4.74195 5 ft 11 kts
2026-05-06 04:21 52.32008 4.74168 5 ft 0 kts 313°
2026-05-06 04:21 52.32014 4.74154 5 ft 9 kts 307°
2026-05-06 04:21 52.32037 4.74013 4 ft 14 kts 275°
2026-05-06 04:22 52.32045 4.73854 5 ft 14 kts 274°
2026-05-06 04:22 52.32050 4.73700 5 ft 14 kts 273°
2026-05-06 04:22 52.32056 4.73537 5 ft 15 kts 274°
2026-05-06 04:23 52.32155 4.73265 5 ft 15 kts 320°
2026-05-06 04:23 52.32207 4.73192 5 ft 15 kts 319°
2026-05-06 04:23 52.32286 4.73078 5 ft 15 kts 319°
2026-05-06 04:23 52.32368 4.72964 5 ft 16 kts 320°
2026-05-06 04:24 52.32452 4.72847 5 ft 16 kts 319°
2026-05-06 04:24 52.32538 4.72728 5 ft 16 kts 319°
2026-05-06 04:24 52.32625 4.72605 5 ft 17 kts 318°
2026-05-06 04:24 52.32706 4.72473 5 ft 16 kts 311°
2026-05-06 04:25 52.32782 4.72332 5 ft 17 kts 311°
2026-05-06 04:25 52.32839 4.72172 5 ft 15 kts 277°
2026-05-06 04:25 52.32839 4.72003 5 ft 15 kts 282°
2026-05-06 04:25 52.32893 4.71864 5 ft 14 kts 314°
2026-05-06 04:26 52.32961 4.71744 5 ft 15 kts 312°
2026-05-06 04:26 52.33030 4.71618 5 ft 15 kts 311°
2026-05-06 04:26 52.33087 4.71478 5 ft 12 kts 277°
2026-05-06 04:26 52.33052 4.71390 5 ft 9 kts 225°
2026-05-06 04:27 52.33002 4.71313 5 ft 10 kts 221°
2026-05-06 04:27 52.32946 4.71232 5 ft 11 kts 221°
2026-05-06 04:27 52.32887 4.71142 5 ft 12 kts 228°
2026-05-06 04:27 52.32864 4.71011 4 ft 13 kts 270°
2026-05-06 04:28 52.32895 4.70901 4 ft 9 kts 353°
2026-05-06 04:28 52.32994 4.70906 3 ft 33 kts
2026-05-06 04:28 52.33421 4.70946 4 ft 88 kts
2026-05-06 04:28 52.34198 4.71015 3 ft 135 kts
2026-05-06 04:29 52.35273 4.71116 46 ft 169 kts
2026-05-06 04:29 52.36378 4.71229 714 ft 155 kts
2026-05-06 04:29 52.37472 4.71335 1116 ft 161 kts
2026-05-06 04:29 52.38650 4.71445 1318 ft 179 kts
2026-05-06 04:30 52.39958 4.71569 1510 ft 198 kts
2026-05-06 04:30 52.41406 4.71729 1682 ft 221 kts
2026-05-06 04:30 52.42931 4.72520 1885 ft 240 kts 26°
2026-05-06 04:30 52.44430 4.73854 2366 ft 249 kts 30°
2026-05-06 04:31 52.45939 4.75278 2949 ft 252 kts 30°
2026-05-06 04:31 52.47312 4.77076 3530 ft 256 kts 50°
2026-05-06 04:31 52.48110 4.79666 4085 ft 259 kts 77°
2026-05-06 04:31 52.48353 4.82602 4657 ft 261 kts 84°
2026-05-06 04:32 52.48488 4.85589 5223 ft 264 kts 85°
2026-05-06 04:32 52.48553 4.88614 5804 ft 267 kts 93°
2026-05-06 04:32 52.48060 4.91549 6358 ft 271 kts 118°
2026-05-06 04:32 52.46817 4.93868 6964 ft 274 kts 141°
2026-05-06 04:33 52.45268 4.95711 7565 ft 277 kts 144°
2026-05-06 04:33 52.43673 4.97509 8171 ft 279 kts 144°
2026-05-06 04:33 52.42070 4.99327 8784 ft 282 kts 144°
2026-05-06 04:33 52.40455 5.01175 9396 ft 284 kts 144°
2026-05-06 04:34 52.38829 5.03044 9984 ft 287 kts 144°
2026-05-06 04:34 52.37158 5.04970 10321 ft 301 kts 144°
2026-05-06 04:34 52.35400 5.06998 10560 ft 317 kts 144°
2026-05-06 04:34 52.33588 5.09208 10803 ft 333 kts 138°
2026-05-06 04:35 52.31923 5.11958 11046 ft 347 kts 131°
2026-05-06 04:35 52.30278 5.14962 11288 ft 362 kts 131°
2026-05-06 04:35 52.28581 5.18080 11618 ft 372 kts 131°
2026-05-06 04:35 52.26850 5.21243 12135 ft 376 kts 131°
2026-05-06 04:36 52.25096 5.24447 12665 ft 379 kts 130°
2026-05-06 04:36 52.23462 5.27850 13223 ft 382 kts 125°
2026-05-06 04:36 52.21915 5.31396 13741 ft 385 kts 124°
2026-05-06 04:36 52.20366 5.34984 14272 ft 388 kts 124°
2026-05-06 04:37 52.18825 5.38544 14752 ft 391 kts 124°
2026-05-06 04:37 52.17248 5.42179 15256 ft 394 kts 124°
2026-05-06 04:37 52.15658 5.45832 15749 ft 397 kts 124°
2026-05-06 04:37 52.14054 5.49509 16234 ft 400 kts 125°
2026-05-06 04:38 52.12438 5.53208 16744 ft 403 kts 125°
2026-05-06 04:38 52.10807 5.56936 17233 ft 406 kts 125°
2026-05-06 04:38 52.09169 5.60687 17743 ft 409 kts 125°
2026-05-06 04:38 52.07511 5.64461 18241 ft 411 kts 125°
2026-05-06 04:39 52.05784 5.68193 18731 ft 415 kts 129°
2026-05-06 04:39 52.03910 5.71777 19217 ft 418 kts 130°
2026-05-06 04:39 52.01995 5.75342 19692 ft 421 kts 130°
2026-05-06 04:39 52.00062 5.78935 20156 ft 424 kts 130°
2026-05-06 04:40 51.98118 5.82545 20612 ft 426 kts 130°
2026-05-06 04:40 51.96162 5.86179 21054 ft 429 kts 130°
2026-05-06 04:40 51.94190 5.89839 21487 ft 432 kts 130°
2026-05-06 04:40 51.92206 5.93519 21930 ft 435 kts 130°
2026-05-06 04:41 51.90213 5.97221 22360 ft 438 kts 130°
2026-05-06 04:41 51.88214 6.00957 22781 ft 440 kts 130°
2026-05-06 04:41 51.86203 6.04716 23201 ft 443 kts 130°
2026-05-06 04:41 51.84176 6.08502 23605 ft 446 kts 130°
2026-05-06 04:42 51.82133 6.12281 24006 ft 448 kts 131°
2026-05-06 04:42 51.80063 6.16076 24402 ft 451 kts 131°
2026-05-06 04:42 51.77979 6.19880 24796 ft 454 kts 131°
2026-05-06 04:42 51.75883 6.23705 25164 ft 456 kts 131°
2026-05-06 04:43 51.73775 6.27555 25530 ft 459 kts 131°
2026-05-06 04:43 51.71654 6.31414 25887 ft 461 kts 131°
2026-05-06 04:43 51.69516 6.35297 26250 ft 464 kts 131°
2026-05-06 04:43 51.67398 6.39140 26607 ft 466 kts 131°
2026-05-06 04:44 51.65240 6.43049 26935 ft 468 kts 131°
2026-05-06 04:44 51.63070 6.46982 27271 ft 471 kts 131°
2026-05-06 04:44 51.60891 6.50932 27605 ft 473 kts 131°
2026-05-06 04:44 51.58696 6.54899 27936 ft 475 kts 131°
2026-05-06 04:45 51.56492 6.58872 28231 ft 478 kts 131°
2026-05-06 04:45 51.54272 6.62869 28514 ft 480 kts 131°
2026-05-06 04:45 51.52046 6.66870 28813 ft 482 kts 131°
2026-05-06 04:45 51.49807 6.70888 29084 ft 484 kts 131°
2026-05-06 04:46 51.47557 6.74921 29355 ft 486 kts 131°
2026-05-06 04:46 51.45295 6.78970 29610 ft 488 kts 131°
2026-05-06 04:46 51.43026 6.83024 29859 ft 490 kts 131°
2026-05-06 04:46 51.40746 6.87092 30120 ft 491 kts 131°
2026-05-06 04:47 51.38436 6.91106 30458 ft 490 kts 134°
2026-05-06 04:47 51.36020 6.94948 30811 ft 489 kts 135°
2026-05-06 04:47 51.33558 6.98685 31115 ft 488 kts 136°
2026-05-06 04:47 51.31081 7.02396 31409 ft 488 kts 136°
2026-05-06 04:48 51.28608 7.06113 31700 ft 487 kts 136°
2026-05-06 04:48 51.26148 7.09842 31975 ft 487 kts 136°
2026-05-06 04:48 51.23704 7.13573 32251 ft 486 kts 136°
2026-05-06 04:48 51.21270 7.17309 32519 ft 486 kts 135°
2026-05-06 04:49 51.18841 7.21044 32770 ft 485 kts 135°
2026-05-06 04:49 51.16417 7.24770 33014 ft 485 kts 135°
2026-05-06 04:49 51.13990 7.28499 33245 ft 484 kts 135°
2026-05-06 04:49 51.11571 7.32207 33478 ft 484 kts 135°
2026-05-06 04:50 51.09140 7.35926 33704 ft 483 kts 135°
2026-05-06 04:50 51.06719 7.39624 33915 ft 483 kts 136°
2026-05-06 04:50 51.04296 7.43319 34113 ft 482 kts 136°
2026-05-06 04:50 51.01875 7.47003 34319 ft 482 kts 136°
2026-05-06 04:51 50.99455 7.50681 34500 ft 481 kts 136°
2026-05-06 04:51 50.97036 7.54351 34684 ft 481 kts 136°
2026-05-06 04:51 50.94615 7.58018 34848 ft 481 kts 136°
2026-05-06 04:52 50.89745 7.65381 34886 ft 487 kts 136°
2026-05-06 04:52 50.84828 7.72790 34888 ft 487 kts 136°
2026-05-06 04:53 50.79919 7.80160 34888 ft 487 kts 136°
2026-05-06 04:53 50.74985 7.87496 34888 ft 487 kts 136°
2026-05-06 04:54 50.70048 7.94809 34888 ft 487 kts 136°
2026-05-06 04:54 50.65109 8.02113 34888 ft 487 kts 136°
2026-05-06 04:55 50.60253 8.09543 34888 ft 486 kts 130°
2026-05-06 04:55 50.55925 8.17718 34888 ft 486 kts 128°
2026-05-06 04:56 50.51707 8.26008 34888 ft 486 kts 128°
2026-05-06 04:56 50.47515 8.34271 34888 ft 486 kts 128°
2026-05-06 04:57 50.43285 8.42555 34888 ft 486 kts 128°
2026-05-06 04:57 50.39041 8.50820 34888 ft 486 kts 128°
2026-05-06 04:58 50.34686 8.58922 34888 ft 487 kts 132°
2026-05-06 04:58 50.30015 8.66580 34887 ft 487 kts 134°
2026-05-06 04:59 50.25316 8.74195 34888 ft 487 kts 133°
2026-05-06 04:59 50.20657 8.81869 34888 ft 487 kts 133°
2026-05-06 05:00 50.16019 8.89562 34888 ft 487 kts 133°
2026-05-06 05:00 50.11387 8.97240 34888 ft 487 kts 133°
2026-05-06 05:01 50.06739 9.04915 34888 ft 487 kts 133°
2026-05-06 05:01 50.02088 9.12569 34804 ft 486 kts 135°
2026-05-06 05:02 49.97472 9.20136 34792 ft 480 kts 135°
2026-05-06 05:02 49.92863 9.27676 34793 ft 482 kts 135°
2026-05-06 05:03 49.88239 9.35215 34788 ft 483 kts 135°
2026-05-06 05:03 49.83580 9.42787 34785 ft 487 kts 135°
2026-05-06 05:04 49.78933 9.50318 34793 ft 487 kts 135°
2026-05-06 05:04 49.74247 9.57888 34794 ft 487 kts 135°
2026-05-06 05:05 49.69562 9.65438 34795 ft 487 kts 135°
2026-05-06 05:05 49.64871 9.72977 34800 ft 486 kts 135°
2026-05-06 05:06 49.60181 9.80493 34815 ft 486 kts 136°
2026-05-06 05:06 49.55479 9.87994 34804 ft 487 kts 136°
2026-05-06 05:07 49.50768 9.95492 34806 ft 487 kts 136°
2026-05-06 05:07 49.46058 10.02966 34805 ft 487 kts 136°
2026-05-06 05:08 49.41343 10.10433 34804 ft 487 kts 136°
2026-05-06 05:08 49.36620 10.17886 34802 ft 487 kts 136°
2026-05-06 05:09 49.31891 10.25324 34819 ft 487 kts 136°
2026-05-06 05:09 49.27154 10.32754 34812 ft 487 kts 136°
2026-05-06 05:10 49.22415 10.40159 34818 ft 487 kts 137°
2026-05-06 05:10 49.17577 10.47414 34831 ft 486 kts 138°
2026-05-06 05:11 49.13527 10.53360 34833 ft 486 kts 138°
2026-05-06 05:11 49.08648 10.60532 34832 ft 487 kts 138°
2026-05-06 05:12 49.03779 10.67707 34833 ft 487 kts 138°
2026-05-06 05:12 48.98912 10.74880 34832 ft 487 kts 138°
2026-05-06 05:13 48.94041 10.82031 34833 ft 487 kts 139°
2026-05-06 05:13 48.89163 10.89168 34832 ft 487 kts 139°
2026-05-06 05:14 48.84284 10.96289 34831 ft 486 kts 139°
2026-05-06 05:14 48.79407 11.03395 34833 ft 486 kts 139°
2026-05-06 05:15 48.74520 11.10485 34831 ft 486 kts 139°
2026-05-06 05:15 48.69661 11.17512 34833 ft 486 kts 139°
2026-05-06 05:16 48.65291 11.25445 34832 ft 492 kts 124°
2026-05-06 05:16 48.62643 11.35012 34834 ft 498 kts 109°
2026-05-06 05:17 48.60861 11.45078 34832 ft 500 kts 107°
2026-05-06 05:17 48.59180 11.55272 34832 ft 500 kts 107°
2026-05-06 05:18 48.57465 11.65450 34840 ft 500 kts 107°
2026-05-06 05:18 48.55709 11.75613 34842 ft 501 kts 107°
2026-05-06 05:19 48.53934 11.85776 34848 ft 501 kts 107°
2026-05-06 05:19 48.52147 11.95931 34850 ft 501 kts 108°
2026-05-06 05:20 48.50352 12.06079 34850 ft 501 kts 108°
2026-05-06 05:20 48.48553 12.16222 34851 ft 501 kts 108°
2026-05-06 05:21 48.46735 12.26277 34850 ft 501 kts 108°
2026-05-06 05:21 48.44877 12.36450 34851 ft 501 kts 108°
2026-05-06 05:22 48.43025 12.46563 34850 ft 500 kts 108°
2026-05-06 05:22 48.41169 12.56658 34850 ft 501 kts 108°
2026-05-06 05:23 48.39305 12.66748 34850 ft 500 kts 108°
2026-05-06 05:23 48.36491 12.81863 34850 ft 500 kts 108°
2026-05-06 05:24 48.34603 12.91936 34850 ft 500 kts 108°
2026-05-06 05:24 48.32710 13.01996 34851 ft 501 kts 108°
2026-05-06 05:25 48.30805 13.12057 34849 ft 501 kts 108°
2026-05-06 05:25 48.28866 13.22099 34850 ft 501 kts 110°
2026-05-06 05:26 48.26553 13.31956 34851 ft 500 kts 113°
2026-05-06 05:26 48.24119 13.41745 34850 ft 501 kts 112°
2026-05-06 05:27 48.21741 13.51495 34850 ft 502 kts 112°
2026-05-06 05:27 48.19380 13.61340 34860 ft 502 kts 112°
2026-05-06 05:28 48.17012 13.71198 34860 ft 503 kts 112°
2026-05-06 05:28 48.14633 13.81052 34861 ft 503 kts 112°
2026-05-06 05:29 48.12242 13.90906 34859 ft 504 kts 112°
2026-05-06 05:29 48.09837 14.00758 34860 ft 504 kts 112°
2026-05-06 05:30 48.07428 14.10597 34860 ft 504 kts 112°
2026-05-06 05:30 48.05009 14.20437 34860 ft 504 kts 112°
2026-05-06 05:31 48.02582 14.30267 34859 ft 504 kts 112°
2026-05-06 05:31 48.00146 14.40078 34860 ft 503 kts 112°
2026-05-06 05:32 47.97707 14.49870 34869 ft 504 kts 112°
2026-05-06 05:32 47.95256 14.59665 34874 ft 504 kts 112°
2026-05-06 05:33 47.92797 14.69455 34878 ft 504 kts 112°
2026-05-06 05:33 47.90330 14.79233 34889 ft 504 kts 112°
2026-05-06 05:34 47.87851 14.89003 34887 ft 504 kts 112°
2026-05-06 05:34 47.85364 14.98759 34897 ft 504 kts 112°
2026-05-06 05:35 47.82871 15.08510 34898 ft 504 kts 112°
2026-05-06 05:35 47.80373 15.18247 34905 ft 504 kts 112°
2026-05-06 05:36 47.77866 15.27973 34906 ft 503 kts 113°
2026-05-06 05:36 47.75367 15.37617 34906 ft 503 kts 113°
2026-05-06 05:37 47.72844 15.47314 34898 ft 503 kts 113°
2026-05-06 05:37 47.70314 15.56994 34894 ft 503 kts 113°
2026-05-06 05:38 47.67777 15.66669 34899 ft 503 kts 113°
2026-05-06 05:38 47.65236 15.76320 34897 ft 503 kts 113°
2026-05-06 05:39 47.62682 15.85980 34900 ft 503 kts 113°
2026-05-06 05:39 47.60121 15.95626 34897 ft 502 kts 113°
2026-05-06 05:40 47.57556 16.05249 34896 ft 503 kts 113°
2026-05-06 05:40 47.54979 16.14874 34897 ft 503 kts 113°
2026-05-06 05:41 47.52394 16.24486 34898 ft 503 kts 113°
2026-05-06 05:41 47.49801 16.34091 34897 ft 503 kts 113°
2026-05-06 05:42 47.47202 16.43686 34897 ft 502 kts 113°
2026-05-06 05:42 47.44593 16.53267 34897 ft 503 kts 113°
2026-05-06 05:43 47.41987 16.62862 34897 ft 503 kts 112°
2026-05-06 05:43 47.39663 16.72611 34897 ft 504 kts 109°
2026-05-06 05:44 47.37439 16.82422 34897 ft 504 kts 110°
2026-05-06 05:44 47.35173 16.92197 34906 ft 504 kts 110°
2026-05-06 05:45 47.32866 17.01950 34907 ft 504 kts 110°
2026-05-06 05:45 47.30538 17.11681 34906 ft 504 kts 110°
2026-05-06 05:46 47.28202 17.21413 34911 ft 504 kts 110°
2026-05-06 05:46 47.25859 17.31135 34915 ft 503 kts 110°
2026-05-06 05:47 47.23511 17.40841 34915 ft 503 kts 110°
2026-05-06 05:47 47.21173 17.50470 34916 ft 503 kts 110°
2026-05-06 05:48 47.18810 17.60151 34916 ft 503 kts 110°
2026-05-06 05:48 47.16436 17.69834 34916 ft 503 kts 110°
2026-05-06 05:49 47.14057 17.79499 34916 ft 503 kts 110°
2026-05-06 05:49 47.11669 17.89155 34924 ft 503 kts 111°
2026-05-06 05:50 47.09272 17.98811 34925 ft 503 kts 111°
2026-05-06 05:50 47.06866 18.08456 34925 ft 503 kts 110°
2026-05-06 05:51 47.04457 18.18083 34925 ft 503 kts 110°
2026-05-06 05:51 47.02039 18.27704 34930 ft 503 kts 111°
2026-05-06 05:52 46.99613 18.37315 34934 ft 503 kts 111°
2026-05-06 05:52 46.97175 18.46923 34934 ft 503 kts 111°
2026-05-06 05:53 46.94731 18.56516 34945 ft 503 kts 111°
2026-05-06 05:53 46.92279 18.66107 34945 ft 503 kts 111°
2026-05-06 05:54 46.89818 18.75691 34940 ft 503 kts 111°
2026-05-06 05:54 46.87349 18.85265 34944 ft 503 kts 111°
2026-05-06 05:55 46.84872 18.94822 34946 ft 503 kts 111°
2026-05-06 05:55 46.82390 19.04370 34944 ft 503 kts 111°
2026-05-06 05:56 46.79900 19.13912 34942 ft 502 kts 111°
2026-05-06 05:56 46.77406 19.23429 34960 ft 502 kts 111°
2026-05-06 05:57 46.74900 19.32946 34962 ft 503 kts 111°
2026-05-06 05:57 46.72812 19.40848 34962 ft 502 kts 111°
2026-05-06 05:58 46.70294 19.50341 34960 ft 502 kts 111°
2026-05-06 05:58 46.67355 19.61374 34961 ft 503 kts 111°
2026-05-06 05:59 46.65231 19.69316 34965 ft 502 kts 111°
2026-05-06 05:59 46.62690 19.78787 34970 ft 503 kts 111°
2026-05-06 06:00 46.60134 19.88262 34971 ft 503 kts 111°
2026-05-06 06:00 46.57574 19.97724 34971 ft 503 kts 111°
2026-05-06 06:01 46.55004 20.07183 34971 ft 503 kts 111°
2026-05-06 06:01 46.52428 20.16624 34971 ft 502 kts 112°
2026-05-06 06:02 46.49853 20.26031 34976 ft 502 kts 112°
2026-05-06 06:02 46.47285 20.35382 34986 ft 502 kts 112°
2026-05-06 06:03 46.44688 20.44791 34988 ft 504 kts 111°
2026-05-06 06:03 46.42069 20.54236 34988 ft 505 kts 111°
2026-05-06 06:04 46.39446 20.63663 35002 ft 504 kts 111°
2026-05-06 06:04 46.36817 20.73082 35003 ft 504 kts 112°
2026-05-06 06:05 46.34185 20.82472 35006 ft 503 kts 112°
2026-05-06 06:05 46.31542 20.91859 35012 ft 503 kts 112°
2026-05-06 06:06 46.28898 21.01219 35012 ft 503 kts 112°
2026-05-06 06:06 46.26249 21.10564 35020 ft 502 kts 112°
2026-05-06 06:07 46.23540 21.19867 35018 ft 502 kts 113°
2026-05-06 06:07 46.20768 21.29114 35016 ft 502 kts 113°
2026-05-06 06:08 46.17995 21.38346 35017 ft 501 kts 113°
2026-05-06 06:08 46.15226 21.47581 35020 ft 501 kts 113°
2026-05-06 06:09 46.12454 21.56801 35019 ft 501 kts 113°
2026-05-06 06:09 46.09678 21.66009 35016 ft 501 kts 113°
2026-05-06 06:10 46.06909 21.75160 35012 ft 502 kts 113°
2026-05-06 06:10 46.04116 21.84368 35015 ft 502 kts 113°
2026-05-06 06:11 46.01313 21.93557 35016 ft 501 kts 113°
2026-05-06 06:11 45.98504 22.02733 35021 ft 501 kts 113°
2026-05-06 06:12 45.95690 22.11905 35027 ft 501 kts 113°
2026-05-06 06:12 45.92870 22.21070 35025 ft 501 kts 113°
2026-05-06 06:13 45.90039 22.30218 35024 ft 501 kts 113°
2026-05-06 06:13 45.87197 22.39362 35026 ft 501 kts 113°
2026-05-06 06:14 45.84351 22.48496 35027 ft 501 kts 114°
2026-05-06 06:14 45.81502 22.57611 35026 ft 501 kts 114°
2026-05-06 06:15 45.78645 22.66719 35027 ft 502 kts 114°
2026-05-06 06:15 45.75776 22.75830 35018 ft 501 kts 114°
2026-05-06 06:16 45.72925 22.84851 35014 ft 501 kts 114°
2026-05-06 06:16 45.70049 22.93921 35024 ft 501 kts 114°
2026-05-06 06:17 45.67165 23.02983 35026 ft 500 kts 114°
2026-05-06 06:17 45.64279 23.12024 35026 ft 500 kts 114°
2026-05-06 06:18 45.61388 23.21046 35030 ft 500 kts 114°
2026-05-06 06:18 45.58487 23.30059 35027 ft 499 kts 114°
2026-05-06 06:19 45.55581 23.39063 35025 ft 499 kts 114°
2026-05-06 06:19 45.52670 23.48050 35025 ft 499 kts 114°
2026-05-06 06:20 45.49753 23.57021 35027 ft 498 kts 114°
2026-05-06 06:20 45.46836 23.65972 35025 ft 498 kts 114°
2026-05-06 06:21 45.43909 23.74916 35026 ft 498 kts 114°
2026-05-06 06:21 45.40977 23.83849 35024 ft 498 kts 114°
2026-05-06 06:22 45.38039 23.92772 35024 ft 498 kts 114°
2026-05-06 06:22 45.35093 24.01683 35027 ft 498 kts 114°
2026-05-06 06:23 45.32142 24.10584 35025 ft 497 kts 114°
2026-05-06 06:23 45.29187 24.19460 35026 ft 497 kts 114°
2026-05-06 06:24 45.26225 24.28328 35027 ft 497 kts 114°
2026-05-06 06:24 45.23256 24.37193 35025 ft 497 kts 115°
2026-05-06 06:25 45.20298 24.45990 35034 ft 497 kts 115°
2026-05-06 06:26 45.15824 24.59247 35035 ft 497 kts 115°
2026-05-06 06:26 45.12831 24.68072 35036 ft 497 kts 115°
2026-05-06 06:27 45.09826 24.76907 35036 ft 497 kts 115°
2026-05-06 06:27 45.06819 24.85718 35036 ft 497 kts 115°
2026-05-06 06:28 45.03803 24.94529 35043 ft 498 kts 115°
2026-05-06 06:28 45.00784 25.03326 35045 ft 497 kts 115°
2026-05-06 06:29 44.97757 25.12108 35045 ft 497 kts 115°
2026-05-06 06:29 44.94722 25.20885 35045 ft 497 kts 115°
2026-05-06 06:30 44.91683 25.29642 35046 ft 497 kts 115°
2026-05-06 06:30 44.88635 25.38400 35044 ft 497 kts 115°
2026-05-06 06:31 44.85583 25.47143 35045 ft 497 kts 115°
2026-05-06 06:31 44.82523 25.55881 35045 ft 497 kts 115°
2026-05-06 06:32 44.79457 25.64603 35045 ft 497 kts 115°
2026-05-06 06:32 44.76407 25.73254 35045 ft 497 kts 115°
2026-05-06 06:33 44.73325 25.81970 35044 ft 497 kts 115°
2026-05-06 06:33 44.70239 25.90675 35046 ft 497 kts 115°
2026-05-06 06:34 44.67144 25.99366 35044 ft 498 kts 115°
2026-05-06 06:34 44.64041 26.08057 35045 ft 497 kts 115°
2026-05-06 06:35 44.60937 26.16719 35047 ft 497 kts 116°
2026-05-06 06:35 44.57822 26.25378 35046 ft 497 kts 116°
2026-05-06 06:36 44.54705 26.34027 35044 ft 497 kts 116°
2026-05-06 06:36 44.51583 26.42664 35045 ft 497 kts 116°
2026-05-06 06:37 44.48452 26.51293 35043 ft 497 kts 116°
2026-05-06 06:37 44.45317 26.59911 35045 ft 497 kts 116°
2026-05-06 06:38 44.42173 26.68520 35047 ft 497 kts 116°
2026-05-06 06:38 44.39028 26.77113 35054 ft 496 kts 116°
2026-05-06 06:39 44.35874 26.85695 35054 ft 496 kts 116°
2026-05-06 06:39 44.32716 26.94264 35051 ft 496 kts 116°
2026-05-06 06:40 44.29573 27.02769 35054 ft 496 kts 116°
2026-05-06 06:40 44.26402 27.11321 35057 ft 496 kts 116°
2026-05-06 06:41 44.23228 27.19853 35061 ft 495 kts 116°
2026-05-06 06:41 44.20051 27.28370 35062 ft 495 kts 116°
2026-05-06 06:42 44.16867 27.36879 35062 ft 495 kts 116°
2026-05-06 06:42 44.13679 27.45373 35062 ft 495 kts 117°
2026-05-06 06:43 44.10483 27.53856 35066 ft 495 kts 117°
2026-05-06 06:43 44.07284 27.62326 35074 ft 495 kts 117°
2026-05-06 06:44 44.04075 27.70792 35073 ft 495 kts 117°
2026-05-06 06:44 44.00861 27.79250 35073 ft 495 kts 117°
2026-05-06 06:45 43.97644 27.87691 35072 ft 495 kts 117°
2026-05-06 06:45 43.94423 27.96127 35080 ft 495 kts 117°
2026-05-06 06:46 43.91192 28.04558 35075 ft 495 kts 117°
2026-05-06 06:46 43.87953 28.12980 35070 ft 495 kts 117°
2026-05-06 06:47 43.84709 28.21381 35071 ft 495 kts 117°
2026-05-06 06:47 43.81459 28.29783 35071 ft 495 kts 117°
2026-05-06 06:48 43.78225 28.38115 35071 ft 495 kts 117°
2026-05-06 06:48 43.74966 28.46491 35196 ft 494 kts 117°
2026-05-06 06:48 43.73343 28.50654 35518 ft 490 kts 117°
2026-05-06 06:49 43.71652 28.54741 35787 ft 489 kts 121°
2026-05-06 06:49 43.70438 28.57430 35927 ft 489 kts 122°
2026-05-06 06:49 43.67976 28.62638 36114 ft 489 kts 122°
2026-05-06 06:50 43.64227 28.70483 36427 ft 489 kts 122°
2026-05-06 06:50 43.61119 28.77085 36653 ft 489 kts 122°
2026-05-06 06:50 43.59284 28.81020 36870 ft 486 kts 122°
2026-05-06 06:51 43.57462 28.84934 37055 ft 485 kts 122°
2026-05-06 06:51 43.53812 28.92795 37072 ft 487 kts 121°
2026-05-06 06:52 43.50180 29.00596 37072 ft 487 kts 122°
2026-05-06 06:52 43.46515 29.08438 37073 ft 487 kts 122°
2026-05-06 06:53 43.42845 29.16270 37072 ft 487 kts 122°
2026-05-06 06:53 43.39170 29.24083 37072 ft 487 kts 122°
2026-05-06 06:54 43.35486 29.31899 37072 ft 487 kts 122°
2026-05-06 06:54 43.31802 29.39696 37073 ft 487 kts 122°
2026-05-06 06:55 43.28103 29.47499 37083 ft 487 kts 122°
2026-05-06 06:55 43.24402 29.55289 37082 ft 487 kts 122°
2026-05-06 06:56 43.20696 29.63070 37081 ft 488 kts 122°
2026-05-06 06:56 43.16984 29.70843 37091 ft 487 kts 122°
2026-05-06 06:57 43.13266 29.78606 37083 ft 488 kts 122°
2026-05-06 06:57 43.09544 29.86355 37083 ft 488 kts 122°
2026-05-06 06:58 43.05812 29.94108 37098 ft 488 kts 122°
2026-05-06 06:58 43.02076 30.01848 37084 ft 488 kts 122°
2026-05-06 06:59 42.98335 30.09576 37084 ft 488 kts 122°
2026-05-06 06:59 42.94609 30.17260 37102 ft 488 kts 122°
2026-05-06 07:00 42.90854 30.24980 37099 ft 488 kts 122°
2026-05-06 07:00 42.87091 30.32699 37091 ft 489 kts 122°
2026-05-06 07:01 42.83321 30.40412 37104 ft 489 kts 122°
2026-05-06 07:01 42.79545 30.48109 37111 ft 489 kts 122°
2026-05-06 07:02 42.75774 30.55815 37111 ft 489 kts 121°
2026-05-06 07:02 42.72942 30.64163 37110 ft 486 kts 107°
2026-05-06 07:03 42.70926 30.72920 37111 ft 485 kts 105°
2026-05-06 07:03 42.69039 30.81727 37112 ft 485 kts 104°
2026-05-06 07:04 42.67143 30.90535 37115 ft 485 kts 105°
2026-05-06 07:04 42.65221 30.99322 37108 ft 485 kts 105°
2026-05-06 07:05 42.63282 31.08104 37105 ft 485 kts 105°
2026-05-06 07:05 42.61335 31.16880 37110 ft 485 kts 105°
2026-05-06 07:06 42.59380 31.25651 37119 ft 485 kts 105°
2026-05-06 07:06 42.57419 31.34419 37121 ft 486 kts 105°
2026-05-06 07:07 42.55452 31.43183 37117 ft 486 kts 105°
2026-05-06 07:07 42.53477 31.51945 37120 ft 486 kts 105°
2026-05-06 07:08 42.51506 31.60658 37121 ft 486 kts 105°
2026-05-06 07:08 42.49518 31.69422 37122 ft 486 kts 105°
2026-05-06 07:09 42.47518 31.78177 37120 ft 487 kts 105°